| time (UTC) | temp C | wind direction | speed KPH | gust KPH | rain 1hr cm | rain 24hr cm | rain mn cm | humidity % | barometer mb |
| 20260508090411 | 12 | 170 | 1.6 | 8.0 | 0.00 | 0.03 | 0.00 | 74 | 1015.2 |
| 20260508084910 | 12 | 150 | 3.2 | 8.0 | 0.00 | 0.03 | 0.00 | 74 | 1015.0 |
| 20260508084115 | 12 | 112 | 1.6 | 6.4 | 0.00 | 0.03 | 0.00 | 75 | 1014.9 |
| 20260508081909 | 11 | 126 | 1.6 | 6.4 | 0.00 | 0.03 | 0.00 | 76 | 1014.9 |
| 20260508080411 | 11 | 148 | 3.2 | 8.0 | 0.00 | 0.03 | 0.00 | 77 | 1014.8 |
| 20260508075600 | 11 | 77 | 3.2 | 8.0 | 0.00 | 0.03 | 0.00 | 78 | 1014.7 |
| 20260508073409 | 11 | 112 | 3.2 | 8.0 | 0.00 | 0.03 | 0.00 | 78 | 1014.7 |
| 20260508071912 | 11 | 112 | 1.6 | 8.0 | 0.00 | 0.03 | 0.00 | 79 | 1014.7 |
| 20260508070410 | 10 | 102 | 3.2 | 6.4 | 0.00 | 0.03 | 0.00 | 80 | 1014.6 |
| 20260508064908 | 10 | 86 | 0.0 | 4.8 | 0.00 | 0.03 | 0.00 | 80 | 1014.6 |
| 20260508063407 | 10 | 136 | 1.6 | 6.4 | 0.00 | 0.03 | 0.00 | 80 | 1014.4 |
| 20260508061906 | 10 | 120 | 0.0 | 6.4 | 0.00 | 0.03 | 0.00 | 79 | 1014.2 |
| 20260508060407 | 10 | 131 | 3.2 | 8.0 | 0.00 | 0.03 | 0.00 | 79 | 1014.1 |
| 20260508054905 | 10 | 121 | 3.2 | 8.0 | 0.00 | 0.03 | 0.00 | 79 | 1014.0 |
| 20260508053403 | 9 | 134 | 3.2 | 9.7 | 0.00 | 0.03 | 0.00 | 79 | 1013.8 |
| 20260508051907 | 10 | 119 | 3.2 | 8.0 | 0.00 | 0.03 | 0.00 | 78 | 1013.8 |
| 20260508050402 | 10 | 118 | 1.6 | 8.0 | 0.00 | 0.03 | 0.00 | 78 | 1013.6 |
| 20260508044902 | 10 | 131 | 3.2 | 8.0 | 0.00 | 0.03 | 0.00 | 78 | 1013.5 |
| 20260508044055 | 9 | 145 | 1.6 | 6.4 | 0.00 | 0.03 | 0.00 | 79 | 1013.5 |
| 20260508041900 | 9 | 134 | 3.2 | 8.0 | 0.00 | 0.03 | 0.00 | 80 | 1013.5 |
| 20260508040353 | 9 | 115 | 3.2 | 8.0 | 0.00 | 0.03 | 0.00 | 80 | 1013.5 |
| 20260508034854 | 9 | 106 | 3.2 | 6.4 | 0.00 | 0.03 | 0.00 | 80 | 1013.5 |
| 20260508033353 | 9 | 141 | 3.2 | 8.0 | 0.00 | 0.03 | 0.00 | 79 | 1013.5 |
| 20260508031853 | 10 | 121 | 1.6 | 4.8 | 0.00 | 0.03 | 0.00 | 79 | 1013.6 |
| 20260508030353 | 10 | 160 | 1.6 | 6.4 | 0.00 | 0.03 | 0.00 | 78 | 1013.6 |
| 20260508025549 | 10 | 123 | 4.8 | 9.7 | 0.00 | 0.03 | 0.00 | 79 | 1013.4 |
| 20260508023352 | 10 | 129 | 4.8 | 8.0 | 0.00 | 0.03 | 0.00 | 79 | 1013.4 |
| 20260508021853 | 10 | 115 | 3.2 | 9.7 | 0.00 | 0.03 | 0.00 | 79 | 1013.4 |
| 20260508021058 | 10 | 139 | 4.8 | 8.0 | 0.00 | 0.03 | 0.00 | 79 | 1013.5 |
| 20260508015556 | 10 | 124 | 1.6 | 8.0 | 0.00 | 0.03 | 0.00 | 77 | 1013.5 |
| 20260508013353 | 10 | 135 | 4.8 | 11.3 | 0.00 | 0.03 | 0.00 | 76 | 1013.5 |
| 20260508011851 | 10 | 124 | 3.2 | 6.4 | 0.00 | 0.03 | 0.00 | 75 | 1013.4 |
| 20260508010353 | 10 | 175 | 3.2 | 9.7 | 0.00 | 0.03 | 0.00 | 74 | 1013.3 |
| 20260508004853 | 10 | 115 | 1.6 | 3.2 | 0.00 | 0.03 | 0.00 | 76 | 1013.3 |
| 20260508003943 | 10 | 105 | 1.6 | 3.2 | 0.00 | 0.03 | 0.00 | 77 | 1013.5 |
| 20260508003349 | 10 | 105 | 0.0 | 3.2 | 0.00 | 0.03 | 0.00 | 76 | 1013.4 |
| 20260508000350 | 10 | 158 | 0.0 | 4.8 | 0.00 | 0.03 | 0.00 | 77 | 1013.5 |
| 20260507234851 | 10 | 114 | 1.6 | 4.8 | 0.00 | 0.03 | 0.00 | 77 | 1013.5 |
| 20260507233351 | 10 | 148 | 1.6 | 6.4 | 0.00 | 0.03 | 0.00 | 77 | 1013.6 |
| 20260507232557 | 10 | 110 | 1.6 | 6.4 | 0.00 | 0.03 | 0.00 | 76 | 1013.5 |
| 20260507230348 | 10 | 207 | 3.2 | 6.4 | 0.00 | 0.03 | 0.00 | 75 | 1013.5 |
| 20260507224851 | 11 | 124 | 3.2 | 6.4 | 0.00 | 0.03 | 0.03 | 75 | 1013.4 |
| 20260507224058 | 11 | 127 | 3.2 | 6.4 | 0.00 | 0.03 | 0.03 | 75 | 1013.4 |
| 20260507221849 | 10 | 186 | 1.6 | 8.0 | 0.00 | 0.03 | 0.03 | 75 | 1013.4 |
| 20260507220349 | 10 | 120 | 3.2 | 6.4 | 0.00 | 0.03 | 0.03 | 76 | 1013.4 |
| 20260507214851 | 11 | 122 | 1.6 | 4.8 | 0.00 | 0.03 | 0.03 | 76 | 1013.3 |
| 20260507213351 | 11 | 127 | 1.6 | 4.8 | 0.00 | 0.03 | 0.03 | 77 | 1013.3 |
| 20260507211851 | 11 | 129 | 3.2 | 9.7 | 0.00 | 0.03 | 0.03 | 77 | 1013.2 |
| 20260507210349 | 11 | 130 | 3.2 | 8.0 | 0.00 | 0.03 | 0.03 | 79 | 1013.2 |
| 20260507204849 | 11 | 134 | 1.6 | 4.8 | 0.00 | 0.03 | 0.03 | 79 | 1013.1 |
| 20260507203350 | 11 | 114 | 3.2 | 9.7 | 0.00 | 0.03 | 0.03 | 81 | 1012.9 |
| 20260507201850 | 10 | 122 | 3.2 | 6.4 | 0.00 | 0.03 | 0.03 | 84 | 1012.8 |
| 20260507200350 | 10 | 122 | 1.6 | 4.8 | 0.00 | 0.03 | 0.03 | 86 | 1012.7 |
| 20260507194849 | 11 | 112 | 1.6 | 4.8 | 0.00 | 0.03 | 0.03 | 86 | 1012.6 |
| 20260507193349 | 11 | 115 | 0.0 | 3.2 | 0.00 | 0.03 | 0.03 | 85 | 1012.5 |
| 20260507191847 | 11 | 127 | 0.0 | 3.2 | 0.03 | 0.03 | 0.03 | 85 | 1012.4 |
| 20260507190341 | 11 | 131 | 0.0 | 3.2 | 0.03 | 0.03 | 0.03 | 84 | 1012.4 |
| 20260507184842 | 11 | 222 | 0.0 | 4.8 | 0.03 | 0.03 | 0.03 | 83 | 1012.3 |
| 20260507183340 | 11 | 115 | 1.6 | 6.4 | 0.03 | 0.03 | 0.03 | 82 | 1012.2 |
| 20260507181838 | 11 | 117 | 3.2 | 4.8 | 0.00 | 0.00 | 0.00 | 83 | 1012.2 |
| 20260507180339 | 11 | 117 | 1.6 | 4.8 | 0.00 | 0.00 | 0.00 | 83 | 1012.2 |
| 20260507174836 | 11 | 127 | 1.6 | 6.4 | 0.00 | 0.00 | 0.00 | 84 | 1012.2 |
| 20260507173335 | 11 | 101 | 3.2 | 6.4 | 0.00 | 0.00 | 0.00 | 85 | 1012.3 |
| 20260507171835 | 11 | 139 | 1.6 | 3.2 | 0.00 | 0.00 | 0.00 | 84 | 1012.3 |
| 20260507170334 | 11 | 112 | 3.2 | 6.4 | 0.00 | 0.00 | 0.00 | 81 | 1012.3 |
| 20260507164830 | 12 | 101 | 3.2 | 9.7 | 0.00 | 0.00 | 0.00 | 79 | 1012.4 |
| 20260507164035 | 12 | 271 | 6.4 | 12.9 | 0.00 | 0.00 | 0.00 | 76 | 1012.2 |
| 20260507161833 | 12 | 282 | 4.8 | 19.3 | 0.00 | 0.00 | 0.00 | 72 | 1012.1 |
| 20260507160326 | 13 | 166 | 4.8 | 12.9 | 0.00 | 0.00 | 0.00 | 64 | 1011.9 |
| 20260507154826 | 14 | 205 | 4.8 | 16.1 | 0.00 | 0.00 | 0.00 | 63 | 1011.9 |
| 20260507153324 | 13 | 155 | 4.8 | 16.1 | 0.00 | 0.00 | 0.00 | 63 | 1012.0 |
| 20260507151826 | 13 | 122 | 4.8 | 9.7 | 0.00 | 0.00 | 0.00 | 63 | 1012.0 |
| 20260507151018 | 13 | 179 | 4.8 | 16.1 | 0.00 | 0.00 | 0.00 | 64 | 1012.0 |
| 20260507144824 | 14 | 140 | 6.4 | 19.3 | 0.00 | 0.00 | 0.00 | 62 | 1012.1 |
| 20260507143320 | 13 | 131 | 6.4 | 17.7 | 0.00 | 0.00 | 0.00 | 62 | 1012.2 |
| 20260507142524 | 13 | 198 | 6.4 | 14.5 | 0.00 | 0.00 | 0.00 | 63 | 1012.4 |
| 20260507141010 | 13 | 116 | 6.4 | 17.7 | 0.00 | 0.00 | 0.00 | 63 | 1012.5 |
| 20260507134820 | 14 | 124 | 8.0 | 19.3 | 0.00 | 0.00 | 0.00 | 63 | 1012.5 |
| 20260507133321 | 14 | 168 | 6.4 | 16.1 | 0.00 | 0.00 | 0.00 | 62 | 1012.6 |
| 20260507131820 | 14 | 135 | 3.2 | 11.3 | 0.00 | 0.00 | 0.00 | 64 | 1012.7 |
| 20260507131017 | 13 | 161 | 6.4 | 14.5 | 0.00 | 0.00 | 0.00 | 65 | 1012.9 |
| 20260507125513 | 13 | 144 | 6.4 | 19.3 | 0.00 | 0.00 | 0.00 | 67 | 1012.9 |
| 20260507123316 | 13 | 222 | 8.0 | 19.3 | 0.00 | 0.00 | 0.00 | 70 | 1013.0 |
| 20260507121816 | 12 | 160 | 8.0 | 17.7 | 0.00 | 0.00 | 0.00 | 72 | 1013.0 |
| 20260507121021 | 12 | 149 | 6.4 | 19.3 | 0.00 | 0.00 | 0.00 | 73 | 1013.1 |
| 20260507114815 | 11 | 130 | 6.4 | 19.3 | 0.00 | 0.00 | 0.00 | 74 | 1013.1 |
| 20260507113316 | 11 | 129 | 6.4 | 17.7 | 0.00 | 0.00 | 0.00 | 77 | 1013.1 |
| 20260507111816 | 11 | 129 | 6.4 | 16.1 | 0.00 | 0.00 | 0.00 | 79 | 1013.2 |
| 20260507110316 | 10 | 145 | 6.4 | 17.7 | 0.00 | 0.00 | 0.00 | 81 | 1013.3 |
| 20260507104816 | 9 | 118 | 6.4 | 17.7 | 0.00 | 0.00 | 0.00 | 82 | 1013.4 |
| 20260507103316 | 9 | 111 | 8.0 | 20.9 | 0.00 | 0.00 | 0.00 | 83 | 1013.5 |
| 20260507101817 | 8 | 119 | 6.4 | 16.1 | 0.00 | 0.00 | 0.00 | 84 | 1013.6 |
| 20260507100316 | 8 | 131 | 6.4 | 19.3 | 0.00 | 0.00 | 0.00 | 85 | 1013.6 |
| 20260507094818 | 8 | 115 | 6.4 | 17.7 | 0.00 | 0.00 | 0.00 | 85 | 1013.5 |
| 20260507094701 | 8 | 120 | 9.7 | 20.9 | 0.00 | 0.00 | 0.00 | 84 | 1013.5 |
| 20260507092515 | 8 | 131 | 8.0 | 19.3 | 0.00 | 0.00 | 0.00 | 85 | 1013.5 |